Regional Weather Roundup
Issued by NWS

Home | Current Version | Previous Version | Text Only | Print | Product List | Glossary On
Versions: 1 2 3 4 5 6 7 8 9 10 11 12 13 14 15 16 17 18 19 20 21 22 23 24 25 26 27 28 29 30 31 32 33 34 35 36 37 38 39 40 41 42 43 44 45 46 47 48 49 50
000
ASUS42 KFFC 291703
RWRGA
WEATHER ROUNDUP FOR GEORGIA
NATIONAL WEATHER SERVICE PEACHTREE CITY GA
100 PM EDT FRI MAY 29 2015

NOTE: "FAIR" INDICATES FEW OR NO CLOUDS BELOW 12,000 FEET WITH NO
SIGNIFICANT WEATHER AND/OR OBSTRUCTIONS TO VISIBILITY.

* = USE WITH CAUTION. THE STATIONS MARKED WITH AN ASTERISK MAY NOT
REPORT WEATHER SUCH AS PRECIPITATION, FOG, OR THUNDER AND ARE NOT
QUALITY CONTROLLED BY NWS.

THE REMARK "TC" DENOTES TEMPERATURE READING IN DEGREES CELSIUS.

GAZ001>058-291800-
NORTH GEORGIA

CITY           SKY/WX    TMP DP  RH WIND       PRES   REMARKS
ATLANTA        PTSUNNY   79  64  60 S5        30.24F
ATHENS         MOSUNNY   81  64  56 VRB3      30.25S
CHAMBLEE       MOSUNNY   79  64  60 CALM      30.25S
PEACHTREE CITY MOSUNNY   80  64  58 CALM      30.24S
ROME           MOSUNNY   81  67  62 E7        30.20F
WEST ATLANTA   MOSUNNY   80  63  55 E7        30.23F
GAINESVILLE    MOSUNNY   78  65  63 MISG      30.28F
CARTERSVILLE   MOSUNNY   80  66  62 VRB7      30.22F


CITY           SKY/WX    TMP DP  RH WIND       PRES   REMARKS
DALTON*        PTSUNNY   79  66  65 S5        30.22F
LAWRENCEVILLE* PTSUNNY   81  63  54 E8        30.24S
MARIETTA       MOSUNNY   79  66  63 VRB6      30.24F
KENNESAW*      MOSUNNY   79  66  65 SE8       30.24
BLAIRSVILLE*     N/A     78  43  29 S7        30.27F
$$

GAZ059>098-102>109-291800-
CENTRAL GEORGIA

CITY           SKY/WX    TMP DP  RH WIND       PRES   REMARKS
AUGUSTA-BUSH   SUNNY     83  60  45 VRB5      30.22S
AUGUSTA-DANIEL SUNNY     85  55  35 SE8       30.23F
COLUMBUS       SUNNY     82  64  54 SE10      30.18F
MACON          SUNNY     84  61  45 VRB6      30.20F
ROBINS AFB     MOSUNNY   83  62  49 SE7       30.20F


CITY           SKY/WX    TMP DP  RH WIND       PRES   REMARKS
LAGRANGE*      MOSUNNY   85  72  63 E3        30.21F HX  91
SYLVANIA*      PTSUNNY   84  65  51 SE5       30.22F
MILLEDGEVILLE* SUNNY     82  64  54 SE3       30.22F
$$

GAZ099>101-110>166-291800-
SOUTH GEORGIA

CITY           SKY/WX    TMP DP  RH WIND       PRES   REMARKS
SAVANNAH       PTSUNNY   83  63  50 E12       30.20F
VALDOSTA       MOSUNNY   82  59  45 VRB5      30.18F
ALMA           MOSUNNY   83  61  47 E9        30.19F
FT STEWART     MOSUNNY   85  63  46 E9        30.18F HAZE
ALBANY         MOSUNNY   85  58  39 SE9       30.20F
HUNTER AFB     SUNNY     84  66  55 SE10G17   30.18F
MOODY AFB      PTSUNNY   85  60  41 E7        30.17F
BRUNSWICK        N/A     81  64  57 NE10G17   30.20S


CITY           SKY/WX    TMP DP  RH WIND       PRES   REMARKS
BAINBRIDGE*    SUNNY     86  64  48 E6        30.18F
MOULTRIE*      PTSUNNY   81  61  50 E6        30.19F
VIDALIA*       MOSUNNY   82  61  47 E3        30.21F
WAYCROSS*      PTSUNNY   83  63  51 E9        30.18F
DOUGLAS*       PTSUNNY   84  61  45 NE6       30.21S
$$


USA.gov is the U.S. government's official web portal to all federal, state and local government web resources and services.